THORAD AGENA D DEB

Satellite information

Favourite Embed

Satellite Type and Status

DEBRISIN ORBIT

Key statistics

Satellite THORAD AGENA D DEB at a glance.

Uptime

20241

Days in orbit

Revolutions

≈ 14.3

Per day

Orbit

SSO

Sun Synchronous Orbit

Inclination

100.1

Latest

Satellite identification and parameters

Extended collection of information and parameters for THORAD AGENA D DEB.

Object identification

Identified? True

Debris? True

Object name: THORAD AGENA D DEB

International designator: 1970-025EA

Object number (NORAD): 4819

Object ID (CCSDS): 4819

Country: UNITED STATES OF AMERICA (US)

Current information (Y/N): Y

RCS size: SMALL

Orbital parameters

Period: 100.372 minutes

Inclination: 100.0892 deg

SMA: 7154.3 km

Apoapsis: 801.031 km

Periapsis: 751.299 km

RAAN: 216.7129 deg

Eccentricy: 0.00347567

Argument of periapsis: 0.0412 deg

Mean anomaly: 0.0765 deg

Mean motion: 14.3467011 rev/day

Mean motion (dot): 0.00008832 rev/day2

B* drag term: 0.0031162209 1/REarth

Two-line elements (TLE)

Creation date: Sept. 7, 2025, 3:09 a.m.

Reference frame: TEME

Reference center: EARTH

Epoch: Sept. 6, 2025, 8:59 p.m. UTC

TLE line 0: 0 THORAD AGENA D DEB

TLE line 1: 1 04819U 70025EA 25249.87453697 .00008832 00000-0 31162-2 0 9993

TLE line 2: 2 04819 100.0892 216.7129 0034757 0.0412 0.0765 14.34670110803472

Live tracking on map

Real-time ground track for satellite THORAD AGENA D DEB.

In-orbit conjunctions

A list of the most updated potential collisions computed for object THORAD AGENA D DEB.

Target Orbit TCA Probability of collision Miss distance Type
COSMOS 923 LEO 2024-11-04 04:55:51 0.00100052 91.0 (m) PAYLOAD
CZ-6A DEB LEO 2024-09-28 11:18:45 0.0006534453 278.0 (m) DEBRIS

Associated space launch

Meteorological research and development satellite

THORAD AGENA D DEB was lifted into orbit during the mission ‘Thorad SLV-2G Agena D | Nimbus 4’, on board a Thorad SLV-2G Agena D space rocket.

The launch took place on April 8, 1970, 8:17 a.m. from Space Launch Complex 2E.

For more information about the launch, click the button.

Launch to space Thorad SLV-2G Agena D | Nimbus 4
Thorad SLV-2G Agena D | Nimbus 4

Agency: N/A

Status: Launch Successful

Launch date: April 8, 1970, 8:17 a.m. UTC

Rocket: Thorad SLV-2G Agena D

Launch pad: Space Launch Complex 2E

Location: Vandenberg SFB, CA, USA

...

Latest news about this satellite

There are no fresh news available about this satellite. Check back as we update our databases every day.


Newsletter sign-up

Weekly statistics, charts and insights to help you stay on top of the space industry.